| time (UTC) | temp F | wind direction | speed MPH | gust MPH | rain 1hr in | rain 24hr in | rain mn in | humidity % | barometer mb |
| 20260504171552 | 65 | 150 | 4.0 | 12.0 | 0.00 | 0.00 | 0.00 | 62 | 1010.7 |
| 20260504081515 | 40 | 186 | 0.0 | 0.0 | 0.00 | 0.00 | 0.00 | 71 | 1012.8 |
| 20260504044555 | 41 | 139 | 0.0 | 0.0 | 0.00 | 0.00 | 0.00 | 77 | 1013.7 |
| 20260504043155 | 41 | 139 | 0.0 | 0.0 | 0.00 | 0.00 | 0.00 | 77 | 1013.6 |
| 20260504041551 | 42 | 140 | 0.0 | 0.0 | 0.00 | 0.00 | 0.00 | 76 | 1013.3 |
| 20260504040110 | 42 | 139 | 0.0 | 0.0 | 0.00 | 0.00 | 0.00 | 75 | 1013.4 |
| 20260504034547 | 41 | 139 | 0.0 | 0.0 | 0.00 | 0.00 | 0.00 | 75 | 1013.4 |
| 20260504033046 | 42 | 139 | 0.0 | 0.0 | 0.00 | 0.00 | 0.00 | 74 | 1013.2 |
| 20260504031546 | 42 | 139 | 0.0 | 0.0 | 0.00 | 0.00 | 0.00 | 72 | 1013.3 |
| 20260504030046 | 43 | 139 | 0.0 | 0.0 | 0.00 | 0.00 | 0.00 | 71 | 1013.3 |
| 20260504024548 | 43 | 140 | 0.0 | 0.0 | 0.00 | 0.00 | 0.00 | 69 | 1013.2 |
| 20260504023053 | 44 | 140 | 0.0 | 0.0 | 0.00 | 0.00 | 0.00 | 69 | 1013.2 |
| 20260504021547 | 45 | 139 | 0.0 | 0.0 | 0.00 | 0.00 | 0.00 | 65 | 1013.0 |
| 20260504020046 | 46 | 139 | 0.0 | 0.0 | 0.00 | 0.00 | 0.00 | 64 | 1013.1 |
| 20260504014555 | 46 | 141 | 0.0 | 1.0 | 0.00 | 0.00 | 0.00 | 63 | 1012.7 |
| 20260504013042 | 47 | 141 | 0.0 | 0.0 | 0.00 | 0.00 | 0.00 | 57 | 1012.5 |
| 20260504011542 | 48 | 141 | 0.0 | 1.0 | 0.00 | 0.00 | 0.00 | 57 | 1012.7 |
| 20260504010049 | 49 | 143 | 0.0 | 0.0 | 0.00 | 0.00 | 0.00 | 55 | 1012.7 |
| 20260504004545 | 51 | 142 | 0.0 | 0.0 | 0.00 | 0.00 | 0.00 | 50 | 1012.6 |
| 20260504003039 | 54 | 143 | 0.0 | 1.0 | 0.00 | 0.00 | 0.00 | 44 | 1012.4 |
| 20260504001555 | 55 | 172 | 0.0 | 1.0 | 0.00 | 0.00 | 0.00 | 40 | 1012.3 |
| 20260504000038 | 57 | 139 | 0.0 | 2.0 | 0.00 | 0.00 | 0.00 | 37 | 1012.2 |
| 20260503234538 | 59 | 233 | 1.0 | 4.0 | 0.00 | 0.00 | 0.00 | 34 | 1011.8 |
| 20260503233040 | 61 | 174 | 0.0 | 2.0 | 0.00 | 0.00 | 0.00 | 33 | 1011.9 |
| 20260503231535 | 62 | 249 | 0.0 | 4.0 | 0.00 | 0.00 | 0.00 | 34 | 1012.2 |
| 20260503230035 | 61 | 248 | 1.0 | 6.0 | 0.00 | 0.00 | 0.00 | 35 | 1012.1 |
| 20260503224531 | 61 | 243 | 2.0 | 8.0 | 0.00 | 0.00 | 0.00 | 34 | 1012.3 |
| 20260503223030 | 62 | 117 | 3.0 | 10.0 | 0.00 | 0.00 | 0.00 | 35 | 1012.5 |
| 20260503221528 | 62 | 150 | 2.0 | 5.0 | 0.00 | 0.00 | 0.00 | 35 | 1012.5 |
| 20260503220028 | 62 | 100 | 0.0 | 5.0 | 0.00 | 0.00 | 0.00 | 33 | 1012.6 |
| 20260503214526 | 62 | 167 | 2.0 | 6.0 | 0.00 | 0.00 | 0.00 | 32 | 1012.7 |
| 20260503213026 | 62 | 240 | 2.0 | 6.0 | 0.00 | 0.00 | 0.00 | 33 | 1012.8 |
| 20260503211523 | 62 | 129 | 3.0 | 8.0 | 0.00 | 0.00 | 0.00 | 30 | 1012.9 |
| 20260503210021 | 63 | 331 | 2.0 | 6.0 | 0.00 | 0.00 | 0.00 | 34 | 1013.0 |
| 20260503204525 | 62 | 235 | 4.0 | 9.0 | 0.00 | 0.00 | 0.00 | 28 | 1013.2 |
| 20260503203015 | 62 | 297 | 0.0 | 5.0 | 0.00 | 0.00 | 0.00 | 32 | 1013.5 |
| 20260503201512 | 61 | 241 | 2.0 | 8.0 | 0.00 | 0.00 | 0.00 | 29 | 1013.6 |
| 20260503200012 | 60 | 39 | 1.0 | 6.0 | 0.00 | 0.00 | 0.00 | 29 | 1014.0 |
| 20260503194510 | 61 | 329 | 1.0 | 6.0 | 0.00 | 0.00 | 0.00 | 33 | 1014.3 |
| 20260503193022 | 61 | 193 | 0.0 | 8.0 | 0.00 | 0.00 | 0.00 | 33 | 1014.6 |
| 20260503191505 | 59 | 153 | 3.0 | 10.0 | 0.00 | 0.00 | 0.00 | 34 | 1015.0 |
| 20260503190004 | 59 | 158 | 2.0 | 10.0 | 0.00 | 0.00 | 0.00 | 34 | 1015.3 |
| 20260503184505 | 58 | 159 | 3.0 | 9.0 | 0.00 | 0.00 | 0.00 | 33 | 1015.4 |
| 20260503183003 | 58 | 141 | 0.0 | 9.0 | 0.00 | 0.00 | 0.00 | 36 | 1015.7 |
| 20260503181501 | 58 | 156 | 5.0 | 12.0 | 0.00 | 0.00 | 0.00 | 36 | 1015.8 |
| 20260503180113 | 57 | 120 | 3.0 | 8.0 | 0.00 | 0.00 | 0.00 | 37 | 1015.9 |
| 20260503174557 | 56 | 79 | 1.0 | 7.0 | 0.00 | 0.00 | 0.00 | 36 | 1016.1 |
| 20260503173059 | 56 | 342 | 2.0 | 6.0 | 0.00 | 0.00 | 0.00 | 34 | 1016.3 |